www.pogodaiklimat.ru

Погода и климат >> Архив погоды >> Австралия >> Tennant Creek Airport


ПОГОДА в Tennant Creek Airport

  • Прогноз погоды в Tennant Creek Airport
  • Монитор погоды в Tennant Creek Airport
  • Климат города

АРХИВ ПОГОДЫ в Tennant Creek Airport

Время (UTC), дата Ветер
(напр.,м/с)
 
Видим.   Явления Облачность Т
(С)
Тd
(С)
f
(%)
Тe
(С)
Тes
(С)
Комфортность P
(гПа)
Po
(гПа)
Тmin
(С)
Tmax
(С)
R
(мм)
R24
(мм)
S
(см)
20 10.07 В 7 н/о н/о +11.4 -2.4 38 +9 +9 1019.2 975.5
21 10.07 В 7 н/о н/о +11.0 -2.4 39 +8 +8 1019.5 975.8
23 10.07 В 9 н/о н/о +13.0 -2.9 33 +10 +10 1020.3 976.5
00 11.07 В 9 н/о н/о +15.8 -2.6 28 +14 +14 1020.5 976.7
02 11.07 В 8 н/о н/о +19.1 -3.1 22 +18 +18 1020.1 976.3
03 11.07 В 7 н/о н/о +20.4 -2.6 21 +20 +20 1019.3 975.6
05 11.07 В 6 н/о н/о +22.3 -4.7 16 +21 +21 комфорт 1017.2 973.6
06 11.07 ЮВ 5 н/о н/о +22.8 -5.2 15 +21 +21 комфорт 1016.5 972.9
08 11.07 В 5 н/о н/о +22.1 -5.7 15 +21 +21 комфорт 1016.2 972.6
09 11.07 ЮВ 3 н/о н/о +19.3 -5.6 18 +19 +19 1016.7 973.1
11 11.07 В 3 н/о н/о +15.6 -4.9 24 +15 +15 1018.1 974.4
12 11.07 В 3 н/о н/о +15.3 -4.6 25 +15 +15 1018.3 974.6
14 11.07 В 5 н/о н/о +14.7 -6.2 23 +14 +14 1018.5 974.8
15 11.07 ЮВ 5 н/о н/о +14.4 -5.9 24 +13 +13 1018.4 974.7
17 11.07 В 6 н/о н/о +12.6 -5.9 27 +11 +11 1017.9 974.2
18 11.07 В 7 н/о н/о +12.4 -6.5 26 +10 +10 1017.7 974.0
20 11.07 В 8 н/о н/о +11.2 -6.2 29 +8 +8 1018.1 974.4
21 11.07 В 8 н/о н/о +10.8 -5.6 31 +8 +8 1018.5 974.8
23 11.07 В 8 н/о н/о +12.6 -4.5 30 +10 +10 1019.5 975.8
00 12.07 В 10 н/о н/о +15.0 -4.3 26 +13 +13 1020.1 976.3
02 12.07 В 8 н/о н/о +19.2 -5.0 19 +18 +18 1019.2 975.5
03 12.07 В 7 н/о н/о +20.7 -5.2 17 +20 +20 1018.1 974.4
05 12.07 В 5 н/о н/о +22.7 -4.4 16 +21 +21 комфорт 1016.1 972.5
06 12.07 В 5 н/о н/о +23.4 -3.8 16 +22 +22 комфорт 1015.6 972.0
08 12.07 В 4 н/о н/о +22.1 -4.9 16 +21 +21 комфорт 1015.6 972.0
09 12.07 В 3 н/о н/о +19.6 -4.6 19 +20 +20 1016.0 972.4
11 12.07 В 3 н/о н/о +15.9 -4.6 24 +16 +16 1017.4 973.8
12 12.07 В 3 н/о н/о +15.1 -4.2 26 +15 +15 1017.8 974.1
14 12.07 В 4 н/о н/о +13.4 -4.7 28 +12 +12 1018.0 974.3
15 12.07 В 5 н/о н/о +13.0 -6.0 26 +12 +12 1018.0 974.3
17 12.07 ЮВ 6 н/о н/о +12.1 -7.8 24 +10 +10 1017.7 974.0
18 12.07 В 6 н/о н/о +11.5 -7.8 25 +9 +9 1017.3 973.7
20 12.07 В 6 н/о н/о +10.7 -6.6 29 +8 +8 1017.3 973.7
21 12.07 В 7 н/о н/о +10.5 -6.3 30 +8 +8 1017.7 974.0
23 12.07 В 8 н/о н/о +12.4 -5.6 28 +10 +10 1018.8 975.1
00 13.07 В 7 н/о н/о +15.2 -5.8 23 +14 +14 1019.0 975.3
02 13.07 В 6 н/о н/о +19.1 -5.7 18 +19 +19 1018.5 974.8
03 13.07 В 5 н/о н/о +20.9 -4.3 18 +20 +20 1017.7 974.0
05 13.07 В 3 н/о н/о +23.2 -2.4 18 +22 +22 комфорт 1015.5 971.9
06 13.07 В 3 н/о н/о +23.9 -1.8 18 +22 +22 комфорт 1014.9 971.4
08 13.07 СВ 3 н/о н/о +22.9 -3.4 17 +21 +21 комфорт 1014.8 971.3
09 13.07 В 3 н/о н/о +19.7 -3.2 21 +20 +20 1015.4 971.8
11 13.07 В 3 н/о н/о +16.0 -2.5 28 +16 +16 1016.7 973.1
12 13.07 В 3 н/о н/о +16.1 -1.0 31 +16 +16 1017.2 973.6
14 13.07 ЮВ 4 н/о н/о +15.6 -2.3 29 +15 +15 1017.0 973.4
15 13.07 В 4 н/о н/о +14.3 -3.5 29 +13 +13 1016.9 973.3
17 13.07 В 6 н/о н/о +12.9 -7.2 24 +11 +11 1016.7 973.1
18 13.07 В 6 н/о н/о +12.6 -9.1 21 +11 +11 1016.5 972.9
20 13.07 В 8 н/о н/о +12.2 -9.4 21 +10 +10 1016.8 973.2
21 13.07 В 8 н/о н/о +11.8 -9.8 21 +9 +9 1017.4 973.8
23 13.07 В 8 н/о н/о +13.3 -9.8 19 +11 +11 1018.5 974.8
00 14.07 В 9 н/о н/о +15.0 -9.8 17 +13 +13 1018.5 974.8
02 14.07 В 6 н/о н/о +20.3 -10.0 12 +19 +19 1017.5 973.9
03 14.07 В 6 н/о н/о +21.6 -10.1 11 +20 +20 1016.6 973.0
05 14.07 В 4 н/о н/о +23.1 -6.8 13 +21 +21 комфорт 1014.3 970.8
06 14.07 ЮВ 4 н/о н/о +23.6 -6.4 13 +22 +22 комфорт 1013.6 970.1
08 14.07 СЗ 1 н/о н/о +23.2 -4.8 15 +21 +21 комфорт 1013.4 969.9
09 14.07 ЮВ 3 н/о н/о +19.9 -4.4 19 +20 +20 1013.8 970.3
11 14.07 В 3 н/о н/о +15.4 -4.0 26 +15 +15 1014.8 971.3
12 14.07 В 4 н/о н/о +16.0 -4.5 24 +16 +16 1015.1 971.6
14 14.07 В 3 н/о н/о +15.5 -5.0 24 +15 +15 1014.9 971.4
15 14.07 В 4 н/о н/о +15.0 -5.4 24 +14 +14 1014.8 971.3
17 14.07 В 4 н/о н/о +13.0 -8.8 21 +12 +12 1014.6 971.1
18 14.07 В 5 н/о н/о +12.2 -10.1 20 +11 +11 1014.4 970.9
20 14.07 В 6 н/о н/о +12.1 -12.2 17 +10 +10 1014.6 971.1
21 14.07 В 6 н/о н/о +11.6 -12.6 17 +10 +10 1014.9 971.4
23 14.07 В 6 н/о н/о +13.9 -12.3 15 +12 +12 1016.3 972.7
00 15.07 В 7 н/о н/о +16.6 -11.9 13 +15 +15 1016.5 972.9
02 15.07 СВ 4 н/о н/о +21.1 -13.0 9 +20 +20 1016.0 972.4
03 15.07 В 3 н/о н/о +22.7 -10.4 10 +20 +20 1015.0 971.5
05 15.07 З 4 н/о н/о +25.1 -7.4 11 +22 +22 комфорт 1013.3 969.8
06 15.07 З 4 н/о н/о +25.5 -7.1 11 +23 +23 комфорт 1012.7 969.3
08 15.07 З 4 н/о н/о +24.5 -6.7 12 +22 +22 комфорт 1012.4 969.0
09 15.07 З 3 н/о н/о +19.9 -6.6 16 +20 +20 1013.2 969.7
11 15.07 З 2 н/о н/о +14.6 -6.8 22 +15 +15 1015.0 971.5
12 15.07 штиль 0 н/о н/о +12.4 -6.0 27 +12 +12 1015.4 971.8
14 15.07 штиль 0 н/о н/о +11.4 -6.9 27 +11 +11 1015.5 971.9
15 15.07 штиль 0 н/о н/о +11.1 -5.4 31 +11 +11 1015.4 971.8
17 15.07 В 2 н/о н/о +11.9 -3.8 33 +11 +11 1015.0 971.5
18 15.07 ЮВ 2 н/о н/о +10.4 -5.2 33 +10 +10 1015.0 971.5
20 15.07 ЮВ 4 н/о н/о +13.3 -6.8 24 +12 +12 1015.5 971.9
21 15.07 В 3 н/о н/о +12.7 -5.8 27 +12 +12 1015.8 972.2
23 15.07 В 5 н/о н/о +16.4 -7.3 19 +16 +16 1016.7 973.1
00 16.07 В 5 н/о н/о +19.2 -6.4 17 +19 +19 1017.2 973.6
02 16.07 В 6 н/о н/о +23.8 -9.6 10 +21 +21 комфорт 1017.0 973.4
03 16.07 В 5 н/о н/о +24.8 -10.2 9 +22 +22 комфорт 1016.2 972.6
05 16.07 СВ 4 н/о н/о +25.7 -11.0 8 +23 +23 комфорт 1014.3 970.8
06 16.07 В 4 н/о н/о +25.6 -11.1 8 +22 +22 комфорт 1013.9 970.4
08 16.07 В 4 н/о н/о +24.3 -10.6 9 +22 +22 комфорт 1013.6 970.1
09 16.07 В 3 н/о н/о +20.7 -10.8 11 +20 +20 1013.9 970.4
11 16.07 В 3 н/о н/о +16.9 -9.9 15 +17 +17 1015.5 971.9
12 16.07 В 3 н/о н/о +16.2 -9.6 16 +16 +16 1016.0 972.4
14 16.07 В 4 н/о н/о +15.6 -10.1 16 +15 +15 1016.3 972.7
15 16.07 В 4 н/о н/о +15.8 -9.9 16 +15 +15 1016.2 972.6
17 16.07 В 4 н/о н/о +12.7 -9.7 20 +12 +12 1015.7 972.1
18 16.07 В 4 н/о н/о +12.8 -10.2 19 +12 +12 1015.8 972.2
20 16.07 В 4 н/о н/о +12.0 -9.6 21 +11 +11 1016.1 972.5
21 16.07 В 5 н/о н/о +12.6 -9.7 20 +11 +11 1016.4 972.8
23 16.07 В 4 н/о н/о +15.8 -9.2 17 +15 +15 1018.1 974.4
00 17.07 В 6 н/о н/о +19.8 -10.4 12 +19 +19 1018.6 974.9
02 17.07 В 7 н/о н/о +23.4 -11.2 9 +21 +21 комфорт 1018.1 974.4
03 17.07 В 5 н/о н/о +25.1 -11.4 8 +22 +22 комфорт 1017.2 973.6
05 17.07 СВ 3 н/о н/о +25.5 -11.1 8 +22 +22 комфорт 1015.4 971.8
06 17.07 Ю 3 н/о н/о +25.7 -11.0 8 +23 +23 комфорт 1014.8 971.3
08 17.07 ЮВ 4 н/о н/о +24.8 -11.7 8 +22 +22 комфорт 1014.9 971.4
09 17.07 В 3 н/о н/о +21.6 -11.3 10 +20 +20 1015.4 971.8
11 17.07 В 4 н/о н/о +18.3 -10.6 13 +18 +18 1016.9 973.3
12 17.07 В 3 н/о н/о +16.7 -10.0 15 +17 +17 1017.2 973.6
14 17.07 В 3 н/о н/о +14.6 -8.7 19 +14 +14 1017.3 973.7
15 17.07 В 4 н/о н/о +15.7 -9.2 17 +15 +15 1017.2 973.6
17 17.07 В 4 н/о н/о +13.5 -9.6 19 +13 +13 1016.6 973.0
18 17.07 В 4 н/о н/о +12.8 -8.9 21 +12 +12 1016.3 972.7

 

Местоположение метеостанции Tennant Creek Airport (Северная территория, Австралия): широта -19.63 долгота 134.18 высота над уровнем моря 377 м.

В архиве по умолчанию представлена погода в Tennant Creek Airport за последнюю неделю. Архивные данные за месяц целиком и за предыдущие месяцы, начиная с января 2011 года, Вы можете получить, выбрав интересующий диапазон дат из раскрывающегося списка и нажав кнопку "Ввод!".


*Определитесь, кто Вы:
робот инопланетянин человек

Внимание! Время в таблицах - всемирное. Для получения местного времени необходимо прибавить поправку, которая в Tennant Creek Airport равна 9.5 ч.

Смотрите также архив погоды в соседних городах и на ближайших метеорологических станциях:

Погода в Territory Grape Farm (Северная территория, Австралия) (319 км)
Погода в Daly Waters Aws (Северная территория, Австралия) (386 км)
Погода в Lajamanu (Северная территория, Австралия) (400 км)
Погода в Mcarthur River Mine (Северная территория, Австралия) (408 км)
Погода в Camooweal Township (Квинсленд, Австралия) (413 км)
Погода в Jervois (Северная территория, Австралия) (422 км)
Погода в Rabbit Flat (Северная территория, Австралия) (439 км)
Погода в Borroloola (Северная территория, Австралия) (454 км)
Погода в Alice Springs Airport (Северная территория, Австралия) (465 км)
Погода в Century Mine (Квинсленд, Австралия) (485 км)

Пояснения к столбцам:

Ветер - указаны скорость ветра в м/с - средняя за 10 мин, порывы в срок и между сроками (в фигурных скобках) и направление, откуда дует ветер: С - северный, СВ - северо-восточный, В - восточный, ЮВ - юго-восточный, Ю - южный, ЮЗ - юго-западный, З - западный, СЗ - северо-западный.
Видимость - горизонтальная дальность видимости в метрах или километрах. При видимости от 1 до 10 км при отсутствии осадков обычно наблюдается дымка, при ухудшении видимости до 1 км и менее - туман. В сухую погоду видимость может ухудшаться дымом, пылью или мглою.
Явления - указаны атмосферные явления, наблюдавшиеся в срок или в последний час перед сроком; фигурными скобками обозначены явления, наблюдавшиеся между сроками (за 1-3 часа до срока); квадратными скобками обозначены град или гололедные отложения с указанием их диаметра в мм.
Облачность - указаны через наклонную черту общая и нижняя облачность в баллах и высота нижней границы облаков в метрах; квадратными скобками обозначены формы облаков: Ci - перистые, Cs - перисто-слоистые, Cc - перисто-кучевые, Ac - высококучевые, As - высокослоистые, Sc - слоисто-кучевые, Ns - слоисто-дождевые, Cu - кучевые, Cb - кучево-дождевые. Подробнее классификацию облаков см. в Атласе облаков (PDF).
T - Температура воздуха - температура, измеренная на высоте 2 м над землей.
Td - Температура точки росы - температура, при понижении до которой содержащийся в воздухе водяной пар достигнет насыщения.
f - Относительная влажность воздуха - влажноcть воздуха, измеренная на высоте 2 м над землей.
Te - Эффективная температура - температура, которую ощущает одетый по сезону человек в тени. Характеристика душности погоды. При расчете учитывается влияние влажности воздуха и скорости ветра на теплоощущения человека.
Tes - Эффективная температура на солнце - температура, которую ощущает человек, с поправкой на солнечный нагрев. Характеристика знойности погоды. Зависит от высоты солнца над горизонтом, облачности и скорости ветра. Ночью, в пасмурную погоду, а также при ветре 12 м/с и более поправка равна нулю.
P - Атмосферное давление - приведенное к уровню моря атмосферное давление.
Po - Атмосферное давление - измеренное на уровне метеостанции атмосферное давление.
Tmin - Минимальная температура - минимум температуры воздуха на высоте 2 м над землей.
Tmax - Максимальная температура - максимум температуры воздуха на высоте 2 м над землей.
R - Количество осадков - Количество выпавших осадков за период времени, мм. При наведении курсора мыши на число - период времени, за который выпало указанное количество осадков.
R24 - Количество осадков - Количество выпавших осадков за 24 часа, мм.
S - Снежный покров - Высота снежного покрова, см. При наведении курсора мыши на число - состояние снежного покрова и степень покрытия местности в баллах.